Location: Camp Creek
(33.9000°N, 111.8167°W)
Time: 15:19:35
(UTC-07:00)

Cosmos 1656 - Visible Passes

Search period start: 26 June 2017 00:00
Search period end: 06 July 2017 00:00
Orbit: 799 x 848 km, 71.1° (Epoch: 25 June)

Date Brightness Start Highest point End Pass type
(mag) Time Alt. Az. Time Alt. Az. Time Alt. Az.
27 Jun 6.0 04:30:32 10° SE 04:34:20 20° E 04:38:07 10° NE visible
28 Jun 6.1 04:10:45 10° SE 04:13:59 16° E 04:17:14 10° ENE visible
29 Jun 6.2 03:51:10 10° SE 03:53:38 13° E 03:56:08 10° ENE visible
30 Jun 6.3 03:32:10 10° ESE 03:33:19 11° E 03:34:28 10° E visible
01 Jul 3.6 04:50:20 10° SSW 04:55:45 86° WNW 05:01:13 10° NNE visible
02 Jul 3.7 04:29:56 10° SSW 04:35:20 80° ESE 04:40:46 10° NNE visible
03 Jul 3.9 04:09:33 10° S 04:14:54 67° ESE 04:20:18 10° NNE visible
04 Jul 4.1 03:50:00 14° S 03:54:30 55° ESE 03:59:48 10° NNE visible
05 Jul 4.4 03:30:28 19° S 03:34:06 46° ESE 03:39:17 10° NE visible
